Rogers City, MI

8:40 AM EDT on June 24, 2017 (GMT -0400)
Presque Isle County

Weather History for KPZQ - April, 2013

Change the Weather History Date:

Monday, April 22, 2013

  Actual Average (KAPN) Record (KAPN)
Temperature  
Mean Temperature 47 °F -  
Max Temperature 58 °F 55 °F 88 °F (1985)
Min Temperature 36 °F 32 °F 17 °F (1950)
Degree Days  
Heating Degree Days 18    
Moisture  
Dew Point 29 °F    
Average Humidity 54    
Maximum Humidity 76    
Minimum Humidity 36    
Precipitation  
Precipitation 0.00 in - - ()
Sea Level Pressure  
Sea Level Pressure 30.30 in    
Wind  
Wind Speed 11 mph (SSE)    
Max Wind Speed 23 mph    
Max Gust Speed 28 mph    
Visibility 10 miles    
Events      
Averages and records for this station are not official NWS values.
T = Trace of Precipitation, MM = Missing Value Source: NWS Daily Summary

Daily Weather History Graph

Daily Weather History Graph

Search for Another Location

Airport or City:

Trip Planner

Search our weather history database for the weather conditions in past years. The results will help you decide how hot, cold, wet, or windy it might be!

Date:

Astronomy

Apr. 22, 2013 Rise Set
Actual Time 6:37 AM EDT 8:30 PM EDT
Civil Twilight 6:05 AM EDT 9:02 PM EDT
Nautical Twilight 5:27 AM EDT 9:41 PM EDT
Astronomical Twilight 4:44 AM EDT 10:23 PM EDT
Moon 5:10 PM EDT (4/22) 4:41 AM EDT (4/22)
Length of Visible Light 14h 56m
Length of Day
13h 53m
Waxing Gibbous, 87% of the Moon is Illuminated
Apr 22
Waxing Gibbous
Apr 25
Full
May 2
Last Quarter
May 9
New
May 18
First Quarter

Hourly Weather History & Observations

Time (EDT) Temp. Windchill Dew Point Humidity Pressure Visibility Wind Dir Wind Speed Gust Speed Precip Events Conditions
12:15 AM 36.0 °F 27.5 °F 29.1 °F 76% 30.43 in 10.0 mi SSE 12.7 mph - N/A   Overcast
12:35 AM 36.1 °F 28.7 °F 28.8 °F 75% 30.42 in 10.0 mi SSE 10.4 mph 20.7 mph N/A   Overcast
12:55 AM 36.5 °F 28.7 °F 28.8 °F 74% 30.42 in 10.0 mi SSE 11.5 mph - N/A   Overcast
1:14 AM 36.5 °F 29.7 °F 28.8 °F 74% 30.41 in 10.0 mi SSE 9.2 mph 18.4 mph N/A   Overcast
1:35 AM 36.5 °F 28.7 °F 28.6 °F 73% 30.40 in 10.0 mi SSE 11.5 mph 16.1 mph N/A   Scattered Clouds
1:55 AM 36.5 °F 29.2 °F 28.8 °F 74% 30.39 in 10.0 mi SSE 10.4 mph - N/A   Mostly Cloudy
2:14 AM 36.5 °F 29.2 °F 28.4 °F 72% 30.38 in 10.0 mi South 10.4 mph - N/A   Scattered Clouds
2:35 AM 36.7 °F 28.0 °F 27.5 °F 69% 30.38 in 10.0 mi South 13.8 mph 19.6 mph N/A   Clear
2:55 AM 36.9 °F 29.1 °F 27.0 °F 67% 30.37 in 10.0 mi SSE 11.5 mph 17.3 mph N/A   Clear
3:15 AM 36.7 °F 28.4 °F 26.6 °F 67% 30.37 in 10.0 mi SSE 12.7 mph 16.1 mph N/A   Clear
3:35 AM 36.7 °F 30.5 °F 26.6 °F 67% 30.37 in 10.0 mi SSE 8.1 mph 17.3 mph N/A   Clear
3:55 AM 36.1 °F 28.7 °F 26.6 °F 68% 30.36 in 10.0 mi SSE 10.4 mph - N/A   Clear
4:15 AM 36.1 °F 29.9 °F 27.0 °F 69% 30.35 in 10.0 mi SSE 8.1 mph - N/A   Mostly Cloudy
4:35 AM 36.1 °F 28.7 °F 26.8 °F 69% 30.35 in 10.0 mi SSE 10.4 mph - N/A   Overcast
4:55 AM 36.5 °F 28.7 °F 26.6 °F 67% 30.34 in 10.0 mi SSE 11.5 mph 19.6 mph N/A   Overcast
5:15 AM 36.5 °F 28.7 °F 26.4 °F 67% 30.35 in 10.0 mi South 11.5 mph 16.1 mph N/A   Overcast
5:35 AM 36.5 °F 29.7 °F 26.2 °F 66% 30.35 in 10.0 mi South 9.2 mph - N/A   Overcast
5:54 AM 36.5 °F 29.7 °F 26.2 °F 66% 30.36 in 10.0 mi South 9.2 mph - N/A   Overcast
6:15 AM 36.1 °F 28.7 °F 26.1 °F 67% 30.35 in 10.0 mi South 10.4 mph - N/A   Overcast
6:34 AM 36.1 °F 28.7 °F 26.1 °F 67% 30.35 in 10.0 mi SSE 10.4 mph - N/A   Overcast
6:55 AM 36.5 °F - 25.7 °F 65% 30.38 in 10.0 mi Calm Calm - N/A   Overcast
7:15 AM 36.5 °F 31.8 °F 25.7 °F 65% 30.38 in 10.0 mi SSE 5.8 mph - N/A   Mostly Cloudy
7:34 AM 36.5 °F 32.7 °F 26.2 °F 66% 30.38 in 10.0 mi SSE 4.6 mph - N/A   Mostly Cloudy
7:55 AM 36.7 °F 30.5 °F 26.6 °F 67% 30.37 in 10.0 mi SE 8.1 mph - N/A   Overcast
8:14 AM 37.4 °F 30.8 °F 27.0 °F 66% 30.37 in 10.0 mi SE 9.2 mph - N/A   Overcast
8:35 AM 37.9 °F 31.5 °F 27.3 °F 66% 30.37 in 10.0 mi SSE 9.2 mph - N/A   Overcast
8:54 AM 38.8 °F 32.6 °F 27.5 °F 64% 30.37 in 10.0 mi SSE 9.2 mph - N/A   Mostly Cloudy
9:15 AM 39.7 °F 34.9 °F 27.9 °F 63% 30.37 in 10.0 mi SSE 6.9 mph - N/A   Mostly Cloudy
9:35 AM 41.0 °F 36.4 °F 28.2 °F 60% 30.38 in 10.0 mi South 6.9 mph - N/A   Overcast
9:55 AM 42.3 °F 36.8 °F 28.6 °F 58% 30.36 in 10.0 mi SSE 9.2 mph - N/A   Overcast
10:15 AM 43.9 °F 38.3 °F 29.1 °F 56% 30.36 in 10.0 mi SSE 10.4 mph - N/A   Mostly Cloudy
10:34 AM 45.5 °F 41.3 °F 28.9 °F 52% 30.35 in 10.0 mi SSE 8.1 mph - N/A   Scattered Clouds
10:55 AM 48.7 °F - 29.7 °F 48% 30.35 in 10.0 mi SSE 9.2 mph - N/A   Scattered Clouds
11:15 AM 49.5 °F - 29.5 °F 46% 30.35 in 10.0 mi South 12.7 mph 17.3 mph N/A   Overcast
11:35 AM 50.2 °F - 29.3 °F 45% 30.34 in 10.0 mi South 12.7 mph 17.3 mph N/A   Overcast
11:55 AM 51.3 °F - 29.5 °F 43% 30.34 in 10.0 mi South 9.2 mph - N/A   Overcast
12:14 PM 52.0 °F - 29.7 °F 42% 30.33 in 10.0 mi South 9.2 mph 16.1 mph N/A   Mostly Cloudy
12:35 PM 53.6 °F - 31.1 °F 42% 30.32 in 10.0 mi SSE 8.1 mph - N/A   Overcast
12:55 PM 55.6 °F - 30.2 °F 38% 30.32 in 10.0 mi SSE 9.2 mph 17.3 mph N/A   Mostly Cloudy
1:15 PM 56.8 °F - 31.5 °F 38% 30.30 in 10.0 mi SSE 12.7 mph - N/A   Scattered Clouds
1:35 PM 57.2 °F - 30.7 °F 37% 30.30 in 10.0 mi SSE 12.7 mph 19.6 mph N/A   Clear
1:55 PM 57.9 °F - 33.3 °F 39% 30.29 in 10.0 mi SE 11.5 mph - N/A   Clear
2:15 PM 57.7 °F - 34.9 °F 42% 30.28 in 10.0 mi SSE 11.5 mph - N/A   Clear
2:35 PM 57.4 °F - 34.0 °F 41% 30.27 in 10.0 mi SE 12.7 mph 19.6 mph N/A   Clear
2:54 PM 57.2 °F - 33.4 °F 41% 30.27 in 10.0 mi SSE 12.7 mph 19.6 mph N/A   Clear
3:15 PM 57.9 °F - 32.4 °F 38% 30.26 in 10.0 mi SSE 15.0 mph 20.7 mph N/A   Clear
3:35 PM 57.7 °F - 32.9 °F 39% 30.25 in 10.0 mi SSE 13.8 mph 19.6 mph N/A   Clear
3:55 PM 57.2 °F - 32.0 °F 38% 30.25 in 10.0 mi SE 18.4 mph - N/A   Clear
4:15 PM 58.8 °F - 32.4 °F 37% 30.24 in 10.0 mi SE 13.8 mph 21.9 mph N/A   Clear
4:35 PM 57.2 °F - 31.6 °F 38% 30.23 in 10.0 mi SE 15.0 mph 24.2 mph N/A   Clear
4:55 PM 57.2 °F - 30.7 °F 37% 30.22 in 10.0 mi SSE 15.0 mph 21.9 mph N/A   Clear
5:15 PM 56.3 °F - 29.3 °F 36% 30.22 in 10.0 mi SSE 13.8 mph - N/A   Clear
5:35 PM 54.9 °F - 28.8 °F 37% 30.22 in 10.0 mi SE 16.1 mph 25.3 mph N/A   Clear
5:55 PM 54.9 °F - 29.5 °F 38% 30.20 in 10.0 mi SSE 17.3 mph 25.3 mph N/A   Clear
6:15 PM 54.0 °F - 28.9 °F 38% 30.20 in 10.0 mi SE 23.0 mph 27.6 mph N/A   Clear
6:35 PM 52.9 °F - 28.2 °F 39% 30.20 in 10.0 mi SE 18.4 mph 23.0 mph N/A   Clear
6:55 PM 52.3 °F - 26.6 °F 37% 30.20 in 10.0 mi SSE 18.4 mph 24.2 mph N/A   Clear
7:14 PM 51.6 °F - 25.9 °F 37% 30.19 in 10.0 mi SE 16.1 mph 24.2 mph N/A   Clear
7:35 PM 51.3 °F - 27.0 °F 39% 30.19 in 10.0 mi SE 16.1 mph 24.2 mph N/A   Clear
7:55 PM 51.3 °F - 28.2 °F 41% 30.18 in 10.0 mi SSE 17.3 mph 20.7 mph N/A   Clear
8:15 PM 50.9 °F - 29.3 °F 43% 30.18 in 10.0 mi SSE 15.0 mph 23.0 mph N/A   Clear
8:35 PM 50.0 °F - 30.9 °F 48% 30.18 in 10.0 mi SSE 15.0 mph - N/A   Clear
8:55 PM 49.5 °F - 32.0 °F 51% 30.19 in 10.0 mi SSE 12.7 mph 19.6 mph N/A   Clear
9:15 PM 48.7 °F - 32.0 °F 52% 30.19 in 10.0 mi SSE 11.5 mph 17.3 mph N/A   Clear
9:35 PM 48.2 °F - 32.0 °F 54% 30.19 in 10.0 mi South 11.5 mph 17.3 mph N/A   Clear
9:54 PM 48.2 °F - 32.0 °F 54% 30.19 in 10.0 mi South 11.5 mph 16.1 mph N/A   Clear
10:15 PM 47.7 °F - 32.0 °F 55% 30.19 in 10.0 mi SSE 11.5 mph 18.4 mph N/A   Clear
10:34 PM 47.5 °F - 31.8 °F 55% 30.19 in 10.0 mi South 8.1 mph - N/A   Clear
10:55 PM 46.9 °F - 31.6 °F 55% 30.19 in 10.0 mi South 9.2 mph 16.1 mph N/A   Clear
11:15 PM 46.4 °F 42.4 °F 31.6 °F 56% 30.18 in 10.0 mi South 8.1 mph - N/A   Clear
11:35 PM 45.7 °F 41.5 °F 31.6 °F 58% 30.18 in 10.0 mi South 8.1 mph - N/A   Clear
11:55 PM 45.1 °F 39.9 °F 31.6 °F 59% 30.18 in 10.0 mi South 10.4 mph - N/A   Clear